Honolulu, HI

2:52 PM HST on April 25, 2017 (GMT -1000)
Honolulu International

Weather History for PHNL - January, 2011

Change the Weather History Date:

Sunday, January 16, 2011

  Actual Average Record
Temperature  
Mean Temperature 73 °F 73 °F  
Max Temperature 79 °F 80 °F 87 °F (1996)
Min Temperature 67 °F 66 °F 58 °F (1959)
Degree Days  
Heating Degree Days 0 0  
Month to date heating degree days 0 0  
Since 1 July heating degree days 0 0  
Cooling Degree Days 8 8  
Month to date cooling degree days 134 130  
Year to date cooling degree days 134 130  
Growing Degree Days 22 (Base 50)    
Moisture  
Dew Point 65 °F    
Average Humidity 80    
Maximum Humidity 93    
Minimum Humidity 67    
Precipitation  
Precipitation 0.00 in 0.07 in 7.34 in (1949)
Month to date precipitation 2.73 1.37  
Year to date precipitation 2.73 1.37  
Snow  
Snow 0.00 in - - ()
Month to date snowfall 0.0  
Since 1 July snowfall 0.0  
Snow Depth 0.00 in    
Sea Level Pressure  
Sea Level Pressure 29.98 in    
Wind  
Wind Speed 5 mph (WNW)    
Max Wind Speed 13 mph    
Max Gust Speed 15 mph    
Visibility 10 miles    
Events Rain    
T = Trace of Precipitation, MM = Missing Value Source: NWS Daily Summary

Daily Weather History Graph

Daily Weather History Graph

Search for Another Location

Airport or City:

Trip Planner

Search our weather history database for the weather conditions in past years. The results will help you decide how hot, cold, wet, or windy it might be!

Date:

Astronomy

Jan. 16, 2011 Rise Set
Actual Time 7:11 AM HST 6:11 PM HST
Civil Twilight 6:48 AM HST 6:35 PM HST
Nautical Twilight 6:20 AM HST 7:02 PM HST
Astronomical Twilight 5:53 AM HST 7:29 PM HST
Moon 3:22 PM HST (1/16) 4:16 AM HST (1/16)
Length of Visible Light 11h 47m
Length of Day
10h 59m
Waxing Gibbous, 89% of the Moon is Illuminated
Jan 16
Waxing Gibbous
Jan 19
Full
Jan 26
Last Quarter
Feb 2
New
Feb 10
First Quarter

Hourly Weather History & Observations

Time (HST) Temp. Dew Point Humidity Pressure Visibility Wind Dir Wind Speed Gust Speed Precip Events Conditions
12:53 AM 72.0 °F 66.0 °F 81% 30.04 in 10.0 mi ENE 3.5 mph - N/A   Partly Cloudy
1:53 AM 71.1 °F 66.0 °F 84% 30.03 in 10.0 mi North 3.5 mph - N/A   Partly Cloudy
2:53 AM 69.1 °F 66.0 °F 90% 30.01 in 10.0 mi West 3.5 mph - N/A   Partly Cloudy
3:53 AM 69.1 °F 64.9 °F 87% 30.01 in 10.0 mi Calm Calm - N/A   Partly Cloudy
4:53 AM 68.0 °F 64.9 °F 90% 30.00 in 10.0 mi Calm Calm - N/A   Partly Cloudy
5:53 AM 68.0 °F 64.9 °F 90% 30.00 in 10.0 mi NNW 3.5 mph - N/A   Partly Cloudy
6:53 AM 66.9 °F 64.9 °F 93% 30.00 in 10.0 mi Calm Calm - N/A   Mostly Cloudy
7:53 AM 70.0 °F 64.9 °F 84% 30.01 in 10.0 mi NW 3.5 mph - N/A   Partly Cloudy
8:53 AM 73.9 °F 66.0 °F 76% 30.02 in 10.0 mi NW 3.5 mph - N/A   Scattered Clouds
9:53 AM 75.9 °F 66.0 °F 71% 30.03 in 10.0 mi Variable 4.6 mph - N/A   Mostly Cloudy
10:53 AM 77.0 °F 66.9 °F 71% 30.02 in 10.0 mi SSE 6.9 mph - N/A   Mostly Cloudy
11:53 AM 77.0 °F 68.0 °F 74% 29.99 in 10.0 mi South 5.8 mph - N/A   Scattered Clouds
12:53 PM 78.1 °F 69.1 °F 74% 29.95 in 10.0 mi SW 8.1 mph - N/A   Scattered Clouds
1:53 PM 77.0 °F 66.9 °F 71% 29.93 in 10.0 mi SW 9.2 mph - N/A   Scattered Clouds
2:53 PM 78.1 °F 66.9 °F 68% 29.93 in 10.0 mi WSW 11.5 mph - N/A   Scattered Clouds
3:53 PM 77.0 °F 66.0 °F 69% 29.94 in 10.0 mi SW 9.2 mph - N/A   Scattered Clouds
4:53 PM 77.0 °F 66.0 °F 69% 29.94 in 10.0 mi West 9.2 mph - N/A   Scattered Clouds
5:53 PM 75.9 °F 66.9 °F 74% 29.96 in 10.0 mi NNW 11.5 mph - 0.04 in   Mostly Cloudy
6:53 PM 70.0 °F 64.0 °F 81% 30.01 in 10.0 mi NNW 21.9 mph 38.0 mph 0.03 in Rain Light Rain
7:53 PM 70.0 °F 64.0 °F 81% 30.01 in 10.0 mi NW 12.7 mph 23.0 mph 0.00 in   Scattered Clouds
8:53 PM 70.0 °F 62.1 °F 76% 30.00 in 10.0 mi NNW 12.7 mph - N/A   Partly Cloudy
9:53 PM 71.1 °F 61.0 °F 70% 29.98 in 10.0 mi North 12.7 mph - 0.00 in Rain Light Rain
10:53 PM 71.1 °F 61.0 °F 70% 29.92 in 10.0 mi SSW 5.8 mph - 0.00 in Rain Light Rain
11:53 PM 70.0 °F 61.0 °F 73% 29.90 in 10.0 mi WNW 5.8 mph - 0.00 in   Partly Cloudy